SAUDISAT 1C

Last updated on Fri Dec 29 2023 00:03:31 GMT+0000 (Coordinated Universal Time)

1 27607U 02058C 23362.46756865 .00001937 00000+0 28186-3 0 9997 2 27607 64.5561 28.9847 0045721 179.7266 180.3871 14.78122433131149

Satellite not in orbit

SAUDISAT 1C